Regional Weather Roundup
Issued by NWS

Home | Current Version | Previous Version | Graphics & Text | Print | Product List | Glossary On
Versions: 1 2 3 4 5 6 7 8 9 10 11 12 13 14 15 16 17 18 19 20 21 22 23 24 25 26 27 28 29 30 31 32 33 34 35 36 37 38 39 40 41 42 43 44 45 46 47 48 49 50
000
ASUS43 KLMK 231610
RWRKY
KENTUCKY REGIONAL WEATHER ROUNDUP
NATIONAL WEATHER SERVICE LOUISVILLE KY
1200 PM EDT TUE SEP 23 2014

NOTE "FAIR" INDICATES FEW OR NO CLOUDS BELOW 12,000 FEET
WITH NO SIGNIFICANT WEATHER AND/OR OBSTRUCTIONS TO VISIBILITY.

KYZ001>023-026-027-061>063-070>075-231700-
WESTERN AND SOUTH CENTRAL KENTUCKY

CITY           SKY/WX    TMP DP  RH WIND       PRES   REMARKS
PADUCAH        SUNNY     70  48  45 NE8       30.30S
HENDERSON      SUNNY     64  45  48 E8        30.32F
OWENSBORO      SUNNY     67  47  48 E7        30.33S
HOPKINSVILLE   SUNNY     69  49  48 E13       30.29F
BOWLING GREEN  SUNNY     68  49  50 E12       30.31F
GLASGOW        SUNNY     68  47  46 E12       30.30F
$$

KYZ024-025-028>034-038-045-046-053-231700-
NORTH CENTRAL KENTUCKY

CITY           SKY/WX    TMP DP  RH WIND       PRES   REMARKS
LOUISVILLE/SDF SUNNY     68  43  40 E9        30.33F
LOUISVILLE/LOU SUNNY     67  44  43 NE8       30.34S
FORT KNOX      SUNNY     65  44  46 NE9       30.32S
$$

KYZ035>037-039>044-047>052-055>060-089>105-231700-
NORTHEAST KENTUCKY

CITY           SKY/WX    TMP DP  RH WIND       PRES   REMARKS
LEXINGTON      SUNNY     67  45  45 NE10      30.34S
COVINGTON      SUNNY     65  43  44 NE7       30.35F
FRANKFORT      SUNNY     65  44  46 E8        30.34R
$$

KYZ054-064>069-076>088-106>120-231700-
SOUTHEAST KENTUCKY

CITY           SKY/WX    TMP DP  RH WIND       PRES   REMARKS
JACKSON        SUNNY     61  48  62 VRB5      30.34R
LONDON         SUNNY     64  46  52 E12       30.33R
SOMERSET       SUNNY     64  45  48 E9        30.33R
MIDDLESBORO    SUNNY     61  51  68 CALM      30.31F
MONTICELLO     SUNNY     67  48  50 VRB7      30.33R
$$




USA.gov is the U.S. government's official web portal to all federal, state and local government web resources and services.